Weather History for KSAC - August, 2013

Change the Weather History Date:

Thursday, August 22, 2013

  Actual Average Record
Temperature  
Mean Temperature 72 °F -  
Max Temperature 85 °F 91 °F 102 °F (1969)
Min Temperature 58 °F 58 °F 49 °F (1978)
Degree Days  
Heating Degree Days 0    
Cooling Degree Days 7    
Growing Degree Days 20 (Base 50)    
Moisture  
Dew Point 51 °F    
Average Humidity 57    
Maximum Humidity 80    
Minimum Humidity 34    
Precipitation  
Precipitation 0.00 in 0.00 in 0.29 in (2003)
Month to date precipitation T 0.03  
Year to date precipitation 3.91 11.93  
Since 1 July precipitation T 0.03  
Sea Level Pressure  
Sea Level Pressure 29.87 in    
Wind  
Wind Speed 7 mph (South)    
Max Wind Speed 13 mph    
Max Gust Speed 18 mph    
Visibility 10 miles    
Events      
T = Trace of Precipitation, MM = Missing Value Source: NWS Daily Summary

Daily Weather History Graph

Daily Weather History Graph

Search for Another Location

Airport or City:

Trip Planner

Search our weather history database for the weather conditions in past years. The results will help you decide how hot, cold, wet, or windy it might be!

Date:

Astronomy

Aug. 22, 2013 Rise Set
Actual Time 6:26 AM PDT 7:50 PM PDT
Civil Twilight 5:59 AM PDT 8:17 PM PDT
Nautical Twilight 5:25 AM PDT 8:50 PM PDT
Astronomical Twilight 4:50 AM PDT 9:25 PM PDT
Moon 8:39 PM PDT (8/22) 8:19 AM PDT (8/22)
Length of Visible Light 14h 18m
Length of Day
13h 23m
Waning Gibbous, 96% of the Moon is Illuminated
Aug 22
Waning Gibbous
Aug 28
Last Quarter
Sep 5
New
Sep 12
First Quarter
Sep 19
Full

Hourly Weather History & Observations

Time (PDT) Temp. Heat Index Dew Point Humidity Pressure Visibility Wind Dir Wind Speed Gust Speed Precip Events Conditions
12:53 AM 61.0 °F - 50.0 °F 67% 29.87 in 10.0 mi SSE 5.8 mph - N/A   Clear
1:53 AM 61.0 °F - 51.1 °F 70% 29.86 in 10.0 mi South 5.8 mph - N/A   Clear
2:53 AM 60.1 °F - 52.0 °F 75% 29.86 in 10.0 mi SSE 3.5 mph - N/A   Clear
3:53 AM 60.1 °F - 52.0 °F 75% 29.86 in 10.0 mi SSE 4.6 mph - N/A   Clear
4:53 AM 59.0 °F - 52.0 °F 78% 29.86 in 10.0 mi South 6.9 mph - N/A   Clear
5:53 AM 57.9 °F - 51.1 °F 78% 29.87 in 10.0 mi South 3.5 mph - N/A   Clear
6:53 AM 57.9 °F - 52.0 °F 81% 29.88 in 10.0 mi South 4.6 mph - N/A   Clear
7:53 AM 60.1 °F - 52.0 °F 75% 29.89 in 10.0 mi South 10.4 mph - N/A   Clear
8:53 AM 64.0 °F - 53.1 °F 67% 29.91 in 10.0 mi South 8.1 mph - N/A   Clear
9:53 AM 66.9 °F - 53.1 °F 61% 29.91 in 10.0 mi SSW 10.4 mph 18.4 mph N/A   Clear
10:53 AM 70.0 °F - 53.1 °F 55% 29.92 in 10.0 mi South 9.2 mph - N/A   Clear
11:53 AM 71.1 °F - 53.1 °F 53% 29.91 in 10.0 mi South 12.7 mph 18.4 mph N/A   Clear
12:53 PM 75.9 °F - 54.0 °F 46% 29.90 in 10.0 mi SSW 9.2 mph - N/A   Clear
1:53 PM 80.1 °F 79.9 °F 53.1 °F 39% 29.88 in 10.0 mi Variable 6.9 mph - N/A   Clear
2:53 PM 82.9 °F - 52.0 °F 34% 29.86 in 10.0 mi SSW 11.5 mph - N/A   Clear
3:53 PM 84.0 °F - 50.0 °F 31% 29.83 in 10.0 mi SSW 11.5 mph - N/A   Clear
4:53 PM 84.0 °F - 50.0 °F 31% 29.82 in 10.0 mi SSW 9.2 mph - N/A   Clear
5:53 PM 81.0 °F - 52.0 °F 36% 29.81 in 10.0 mi SSW 10.4 mph 18.4 mph N/A   Clear
6:53 PM 75.9 °F - 51.1 °F 42% 29.81 in 10.0 mi South 8.1 mph - N/A   Clear
7:53 PM 70.0 °F - 50.0 °F 49% 29.83 in 10.0 mi SSW 8.1 mph - N/A   Clear
8:53 PM 66.9 °F - 48.9 °F 52% 29.84 in 10.0 mi South 8.1 mph - N/A   Clear
9:53 PM 64.0 °F - 50.0 °F 60% 29.86 in 10.0 mi Variable 5.8 mph 18.4 mph N/A   Clear
10:53 PM 61.0 °F - 50.0 °F 67% 29.86 in 10.0 mi South 8.1 mph - N/A   Clear
11:53 PM 60.1 °F - 50.0 °F 69% 29.87 in 10.0 mi South 6.9 mph - N/A   Clear